Location: Kimberly
(42.5380°N, 114.3640°W)
Time: 16:50:34
(UTC-06:00)

Tiangong - Visible Passes

Search period start: 17 April 2024 00:00
Search period end: 27 April 2024 00:00
Orbit: 371 x 380 km, 41.5° (Epoch: 17 April)

Date Brightness Start Highest point End Pass type
(mag) Time Alt. Az. Time Alt. Az. Time Alt. Az.
17 Apr -0.5 21:00:37 10° SSW 21:02:47 18° SSE 21:04:39 11° ESE visible
17 Apr 0.4 22:36:01 10° WSW 22:36:43 15° WSW 22:36:43 15° WSW visible
18 Apr -1.6 21:33:33 10° SW 21:36:27 39° SSE 21:37:31 28° ESE visible
19 Apr -2.2 22:07:10 10° WSW 22:10:07 66° S 22:10:07 66° S visible
20 Apr -1.9 21:04:29 10° WSW 21:07:28 51° SSE 21:10:29 10° E visible
20 Apr -0.4 22:40:55 10° W 22:42:31 27° W 22:42:31 27° W visible
21 Apr -2.3 21:38:06 10° W 21:41:10 73° S 21:42:43 26° E visible
21 Apr 1.1 23:14:40 10° W 23:14:43 10° W 23:14:43 10° W visible
22 Apr -2.2 22:11:46 10° W 22:14:48 64° S 22:14:48 64° S visible
23 Apr -2.2 21:08:48 10° W 21:11:52 73° S 21:14:47 11° E visible
23 Apr 0.0 22:45:26 10° W 22:46:47 21° WSW 22:46:47 21° WSW visible
24 Apr -1.9 21:42:22 10° W 21:45:22 53° SSW 21:46:41 28° SE visible
25 Apr -0.8 22:16:01 10° W 22:18:30 26° SSW 22:18:30 26° SSW visible
26 Apr -1.4 21:12:45 10° W 21:15:39 40° SSW 21:18:18 12° SE visible
